23-02-2022, 00:00:00,    236,    0.0,    3.3,   0.00,   0.00, 1020.2,   82.2, -999.0
23-02-2022, 00:00:10,    234,    0.0,    3.3,   0.00,   0.00, 1020.2,   82.4, -999.0
23-02-2022, 00:00:20,    236,    0.2,    3.4,   0.00,   0.00, 1020.3,   82.5, -999.0
23-02-2022, 00:00:30,    236,    0.6,    3.4,   0.00,   0.00, 1020.3,   82.6, -999.0
23-02-2022, 00:00:40,    236,    0.0,    3.4,   0.00,   0.00, 1020.2,   82.3, -999.0
23-02-2022, 00:00:50,    226,    0.8,    3.4,   0.00,   0.00, 1020.3,   82.6, -999.0
23-02-2022, 00:01:00,    225,    0.0,    3.4,   0.00,   0.00, 1020.2,   82.5, -999.0
23-02-2022, 00:01:10,    225,    0.0,    3.2,   0.00,   0.00, 1020.1,   82.4, -999.0
23-02-2022, 00:01:20,    225,    0.0,    3.3,   0.00,   0.00, 1020.2,   82.4, -999.0
23-02-2022, 00:01:30,    225,    0.0,    3.3,   0.00,   0.00, 1020.1,   82.5, -999.0
23-02-2022, 00:01:40,    225,    0.0,    3.4,   0.00,   0.00, 1020.1,   82.4, -999.0
23-02-2022, 00:01:50,    225,    0.1,    3.4,   0.00,   0.00, 1020.2,   82.5, -999.0
23-02-2022, 00:02:00,    226,    0.0,    3.5,   0.00,   0.00, 1020.2,   82.5, -999.0
23-02-2022, 00:02:10,    226,    0.2,    3.4,   0.00,   0.00, 1020.3,   82.6, -999.0
23-02-2022, 00:02:20,    205,    0.9,    3.4,   0.00,   0.00, 1020.3,   82.6, -999.0
23-02-2022, 00:02:30,    242,    0.9,    3.3,   0.00,   0.00, 1020.3,   82.7, -999.0
23-02-2022, 00:02:40,    231,    3.7,    3.5,   0.00,   0.00, 1020.3,   82.9, -999.0
23-02-2022, 00:02:49,    229,    2.7,    3.4,   0.00,   0.00, 1020.3,   82.9, -999.0
23-02-2022, 00:03:00,    224,    1.3,    3.4,   0.00,   0.00, 1020.3,   83.1, -999.0
23-02-2022, 00:03:09,    223,    0.0,    3.4,   0.00,   0.00, 1020.2,   82.7, -999.0
23-02-2022, 00:03:19,    224,    0.0,    3.3,   0.00,   0.00, 1020.2,   82.6, -999.0
23-02-2022, 00:03:29,    223,    0.0,    3.4,   0.00,   0.00, 1020.2,   82.6, -999.0
23-02-2022, 00:03:39,    221,    0.0,    3.3,   0.00,   0.00, 1020.2,   82.6, -999.0
23-02-2022, 00:03:49,    220,    0.0,    3.4,   0.00,   0.00, 1020.2,   82.6, -999.0
23-02-2022, 00:03:59,    244,    1.0,    3.4,   0.00,   0.00, 1020.3,   82.8, -999.0
23-02-2022, 00:04:09,    244,    0.8,    3.5,   0.00,   0.00, 1020.3,   82.9, -999.0
23-02-2022, 00:04:19,    243,    0.0,    3.4,   0.00,   0.00, 1020.2,   82.7, -999.0
23-02-2022, 00:04:29,    243,    0.7,    3.4,   0.00,   0.00, 1020.3,   82.9, -999.0
23-02-2022, 00:04:39,    243,    0.6,    3.4,   0.00,   0.00, 1020.3,   82.9, -999.0
23-02-2022, 00:04:49,    234,    0.8,    3.4,   0.00,   0.00, 1020.3,   83.0, -999.0
23-02-2022, 00:04:59,    235,    2.2,    3.5,   0.00,   0.00, 1020.3,   83.1, -999.0
23-02-2022, 00:05:09,    224,    1.5,    3.4,   0.00,   0.00, 1020.3,   83.2, -999.0
23-02-2022, 00:05:19,    223,    0.8,    3.4,   0.00,   0.00, 1020.3,   83.1, -999.0
23-02-2022, 00:05:29,    222,    0.0,    3.4,   0.00,   0.00, 1020.2,   82.8, -999.0
23-02-2022, 00:05:39,    223,    0.5,    3.4,   0.00,   0.00, 1020.3,   83.2, -999.0
23-02-2022, 00:05:49,    223,    0.6,    3.5,   0.00,   0.00, 1020.3,   83.2, -999.0
23-02-2022, 00:05:58,    223,    0.3,    3.5,   0.00,   0.00, 1020.3,   83.2, -999.0
23-02-2022, 00:06:09,    224,    0.5,    3.4,   0.00,   0.00, 1020.3,   83.0, -999.0
23-02-2022, 00:06:18,    224,    0.2,    3.3,   0.00,   0.00, 1020.3,   83.2, -999.0
23-02-2022, 00:06:28,    223,    0.0,    3.4,   0.00,   0.00, 1020.2,   83.0, -999.0
23-02-2022, 00:06:39,    223,    0.0,    3.3,   0.00,   0.00, 1020.2,   82.8, -999.0
23-02-2022, 00:06:48,    223,    0.0,    3.3,   0.00,   0.00, 1020.2,   82.8, -999.0
23-02-2022, 00:06:58,    220,    0.0,    3.4,   0.00,   0.00, 1020.2,   83.1, -999.0
23-02-2022, 00:07:08,    221,    0.0,    3.3,   0.00,   0.00, 1020.2,   82.9, -999.0
23-02-2022, 00:07:18,    222,    0.1,    3.4,   0.00,   0.00, 1020.2,   83.0, -999.0
23-02-2022, 00:07:28,    222,    0.0,    3.3,   0.00,   0.00, 1020.2,   82.9, -999.0
23-02-2022, 00:07:38,    224,    0.0,    3.3,   0.00,   0.00, 1020.2,   83.0, -999.0
23-02-2022, 00:07:48,    225,    0.5,    3.3,   0.00,   0.00, 1020.3,   83.2, -999.0
23-02-2022, 00:07:58,    226,    0.4,    3.4,   0.00,   0.00, 1020.3,   83.3, -999.0
23-02-2022, 00:08:08,    225,    0.2,    3.4,   0.00,   0.00, 1020.2,   83.1, -999.0
23-02-2022, 00:08:18,    225,    0.0,    3.3,   0.00,   0.00, 1020.1,   83.0, -999.0
23-02-2022, 00:08:28,    225,    0.0,    3.3,   0.00,   0.00, 1020.2,   83.1, -999.0
23-02-2022, 00:08:38,    225,    0.0,    3.3,   0.00,   0.00, 1020.2,   83.1, -999.0
23-02-2022, 00:08:48,    225,    0.0,    3.3,   0.00,   0.00, 1020.2,   83.0, -999.0
23-02-2022, 00:08:58,    229,    0.6,    3.3,   0.00,   0.00, 1020.3,   83.2, -999.0
23-02-2022, 00:09:08,    229,    0.4,    3.3,   0.00,   0.00, 1020.3,   83.2, -999.0
23-02-2022, 00:09:18,    228,    0.0,    3.3,   0.00,   0.00, 1020.2,   83.0, -999.0
23-02-2022, 00:09:28,    228,    0.0,    3.3,   0.00,   0.00, 1020.2,   83.1, -999.0
23-02-2022, 00:09:37,    229,    0.2,    3.4,   0.00,   0.00, 1020.3,   83.2, -999.0
23-02-2022, 00:09:48,    232,    2.0,    3.2,   0.00,   0.00, 1020.3,   83.5, -999.0
23-02-2022, 00:09:57,    229,    1.2,    3.4,   0.00,   0.00, 1020.3,   83.6, -999.0
23-02-2022, 00:10:07,    230,    0.5,    3.4,   0.00,   0.00, 1020.3,   83.5, -999.0
23-02-2022, 00:10:17,    229,    0.0,    3.3,   0.00,   0.00, 1020.2,   83.3, -999.0
23-02-2022, 00:10:27,    229,    0.3,    3.4,   0.00,   0.00, 1020.3,   83.6, -999.0
23-02-2022, 00:10:37,    229,    0.1,    3.3,   0.00,   0.00, 1020.2,   83.4, -999.0
23-02-2022, 00:10:47,    229,    0.0,    3.3,   0.00,   0.00, 1020.1,   83.2, -999.0
23-02-2022, 00:10:57,    229,    0.0,    3.3,   0.00,   0.00, 1020.1,   83.3, -999.0
23-02-2022, 00:11:07,    229,    0.0,    3.3,   0.00,   0.00, 1020.2,   83.3, -999.0
23-02-2022, 00:11:17,    229,    0.0,    3.3,   0.00,   0.00, 1020.2,   83.3, -999.0
23-02-2022, 00:11:27,    217,    0.1,    3.3,   0.00,   0.00, 1020.2,   83.4, -999.0
23-02-2022, 00:11:37,    219,    0.1,    3.4,   0.00,   0.00, 1020.2,   83.5, -999.0
23-02-2022, 00:11:47,    216,    0.0,    3.3,   0.00,   0.00, 1020.1,   83.3, -999.0
23-02-2022, 00:11:57,    218,    0.2,    3.3,   0.00,   0.00, 1020.2,   83.5, -999.0
23-02-2022, 00:12:07,    217,    0.1,    3.4,   0.00,   0.00, 1020.2,   83.5, -999.0
23-02-2022, 00:12:17,    218,    0.1,    3.4,   0.00,   0.00, 1020.3,   83.6, -999.0
23-02-2022, 00:12:27,    218,    0.0,    3.3,   0.00,   0.00, 1020.2,   83.5, -999.0
23-02-2022, 00:12:37,    218,    0.0,    3.3,   0.00,   0.00, 1020.2,   83.5, -999.0
23-02-2022, 00:12:46,    218,    0.0,    3.3,   0.00,   0.00, 1020.2,   83.4, -999.0
23-02-2022, 00:12:57,    218,    0.0,    3.3,   0.00,   0.00, 1020.2,   83.4, -999.0
23-02-2022, 00:13:06,    218,    0.0,    3.2,   0.00,   0.00, 1020.1,   83.4, -999.0
23-02-2022, 00:13:16,    218,    0.0,    3.3,   0.00,   0.00, 1020.2,   83.4, -999.0
23-02-2022, 00:13:26,    218,    0.0,    3.3,   0.00,   0.00, 1020.1,   83.4, -999.0
23-02-2022, 00:13:36,    218,    0.0,    3.2,   0.00,   0.00, 1020.2,   83.4, -999.0
23-02-2022, 00:13:46,    218,    0.0,    3.2,   0.00,   0.00, 1020.1,   83.3, -999.0
23-02-2022, 00:13:56,    218,    0.1,    3.2,   0.00,   0.00, 1020.1,   83.3, -999.0
23-02-2022, 00:14:06,    220,    0.8,    3.3,   0.00,   0.00, 1020.3,   83.7, -999.0
23-02-2022, 00:14:16,    220,    0.1,    3.3,   0.00,   0.00, 1020.2,   83.6, -999.0
23-02-2022, 00:14:26,    220,    0.3,    3.3,   0.00,   0.00, 1020.3,   83.7, -999.0
23-02-2022, 00:14:36,    220,    0.7,    3.3,   0.00,   0.00, 1020.3,   83.9, -999.0
23-02-2022, 00:14:46,    227,    1.7,    3.4,   0.00,   0.00, 1020.3,   84.1, -999.0
23-02-2022, 00:14:56,    226,    0.9,    3.4,   0.00,   0.00, 1020.3,   84.2, -999.0
23-02-2022, 00:15:06,    228,    0.0,    3.3,   0.00,   0.00, 1020.1,   84.0, -999.0
23-02-2022, 00:15:16,    228,    0.0,    3.3,   0.00,   0.00, 1020.1,   83.9, -999.0
23-02-2022, 00:15:26,    227,    0.0,    3.2,   0.00,   0.00, 1020.1,   83.7, -999.0
23-02-2022, 00:15:36,    228,    0.0,    3.2,   0.00,   0.00, 1020.1,   83.7, -999.0
23-02-2022, 00:15:46,    228,    0.0,    3.3,   0.00,   0.00, 1020.1,   83.7, -999.0
23-02-2022, 00:15:55,    228,    0.0,    3.2,   0.00,   0.00, 1020.1,   83.6, -999.0
23-02-2022, 00:16:06,    228,    0.0,    3.3,   0.00,   0.00, 1020.1,   83.7, -999.0
23-02-2022, 00:16:15,    227,    0.4,    3.3,   0.00,   0.00, 1020.2,   83.9, -999.0
23-02-2022, 00:16:25,    220,    0.6,    3.3,   0.00,   0.00, 1020.2,   84.1, -999.0
23-02-2022, 00:16:36,    219,    0.0,    3.2,   0.00,   0.00, 1020.1,   84.1, -999.0
23-02-2022, 00:16:45,    219,    0.0,    3.3,   0.00,   0.00, 1020.1,   83.9, -999.0
23-02-2022, 00:16:55,    219,    0.0,    3.3,   0.00,   0.00, 1020.1,   84.0, -999.0
23-02-2022, 00:17:05,    219,    0.0,    3.2,   0.00,   0.00, 1020.1,   83.9, -999.0
23-02-2022, 00:17:15,    220,    0.0,    3.3,   0.00,   0.00, 1020.1,   84.1, -999.0
23-02-2022, 00:17:25,    219,    0.0,    3.3,   0.00,   0.00, 1020.1,   84.0, -999.0
23-02-2022, 00:17:35,    220,    0.0,    3.3,   0.00,   0.00, 1020.0,   83.9, -999.0
23-02-2022, 00:17:45,    219,    0.1,    3.3,   0.00,   0.00, 1020.1,   84.1, -999.0
23-02-2022, 00:17:55,    220,    0.0,    3.3,   0.00,   0.00, 1020.1,   84.1, -999.0
23-02-2022, 00:18:05,    219,    0.0,    3.3,   0.00,   0.00, 1020.1,   84.2, -999.0
23-02-2022, 00:18:15,    219,    0.0,    3.3,   0.00,   0.00, 1020.1,   84.1, -999.0
23-02-2022, 00:18:25,    219,    0.0,    3.3,   0.00,   0.00, 1020.1,   84.2, -999.0
23-02-2022, 00:18:35,    221,    0.3,    3.3,   0.00,   0.00, 1020.1,   84.3, -999.0
23-02-2022, 00:18:45,    219,    0.0,    3.3,   0.00,   0.00, 1020.1,   84.3, -999.0
23-02-2022, 00:18:55,    219,    0.3,    3.3,   0.00,   0.00, 1020.2,   84.5, -999.0
23-02-2022, 00:19:05,    218,    0.0,    3.1,   0.00,   0.00, 1020.1,   84.2, -999.0
23-02-2022, 00:19:15,    218,    0.0,    3.3,   0.00,   0.00, 1020.1,   84.3, -999.0
23-02-2022, 00:19:24,    218,    0.0,    3.2,   0.00,   0.00, 1020.1,   84.2, -999.0
23-02-2022, 00:19:34,    218,    0.0,    3.2,   0.00,   0.00, 1020.1,   84.2, -999.0
23-02-2022, 00:19:45,    218,    0.1,    3.3,   0.00,   0.00, 1020.2,   84.3, -999.0
23-02-2022, 00:19:54,    219,    0.0,    3.2,   0.00,   0.00, 1020.1,   84.1, -999.0
23-02-2022, 00:20:04,    219,    0.6,    3.2,   0.00,   0.00, 1020.3,   84.6, -999.0
23-02-2022, 00:20:14,    219,    0.6,    3.3,   0.00,   0.00, 1020.3,   84.7, -999.0
23-02-2022, 00:20:24,    219,    0.2,    3.3,   0.00,   0.00, 1020.2,   84.6, -999.0
23-02-2022, 00:20:34,    220,    0.0,    3.3,   0.00,   0.00, 1020.1,   84.4, -999.0
23-02-2022, 00:20:44,    219,    0.0,    3.2,   0.00,   0.00, 1020.2,   84.4, -999.0
23-02-2022, 00:20:54,    219,    1.4,    3.3,   0.00,   0.00, 1020.3,   84.8, -999.0
23-02-2022, 00:21:04,    219,    0.5,    3.4,   0.00,   0.00, 1020.3,   84.9, -999.0
23-02-2022, 00:21:14,    219,    0.0,    3.3,   0.00,   0.00, 1020.1,   84.7, -999.0
23-02-2022, 00:21:24,    218,    0.5,    3.3,   0.00,   0.00, 1020.3,   84.8, -999.0
23-02-2022, 00:21:34,    218,    0.3,    3.3,   0.00,   0.00, 1020.2,   84.7, -999.0
23-02-2022, 00:21:44,    219,    0.0,    3.3,   0.00,   0.00, 1020.1,   84.5, -999.0
23-02-2022, 00:21:54,    219,    0.0,    3.3,   0.00,   0.00, 1020.1,   84.5, -999.0
23-02-2022, 00:22:03,    219,    0.0,    3.3,   0.00,   0.00, 1020.1,   84.4, -999.0
23-02-2022, 00:22:14,    218,    0.0,    3.2,   0.00,   0.00, 1020.1,   84.5, -999.0
23-02-2022, 00:22:24,    221,    0.0,    3.2,   0.00,   0.00, 1020.1,   84.4, -999.0
23-02-2022, 00:22:33,    221,    0.9,    3.3,   0.00,   0.00, 1020.2,   84.8, -999.0
23-02-2022, 00:22:43,    221,    0.3,    3.3,   0.00,   0.00, 1020.2,   84.7, -999.0
23-02-2022, 00:22:54,    221,    0.0,    3.3,   0.00,   0.00, 1020.1,   84.6, -999.0
23-02-2022, 00:23:03,    221,    0.0,    3.2,   0.00,   0.00, 1020.0,   84.6, -999.0
23-02-2022, 00:23:13,    222,    0.0,    3.2,   0.00,   0.00, 1020.1,   84.6, -999.0
23-02-2022, 00:23:24,    221,    0.9,    3.4,   0.00,   0.00, 1020.3,   85.0, -999.0
23-02-2022, 00:23:33,    222,    0.3,    3.4,   0.00,   0.00, 1020.2,   85.0, -999.0
23-02-2022, 00:23:43,    222,    0.3,    3.4,   0.00,   0.00, 1020.2,   85.2, -999.0
23-02-2022, 00:23:53,    212,    0.2,    3.3,   0.00,   0.00, 1020.2,   85.0, -999.0
23-02-2022, 00:24:03,    213,    0.7,    3.4,   0.00,   0.00, 1020.2,   85.1, -999.0
23-02-2022, 00:24:13,    213,    0.4,    3.4,   0.00,   0.00, 1020.2,   85.1, -999.0
23-02-2022, 00:24:23,    212,    0.0,    3.3,   0.00,   0.00, 1020.2,   84.8, -999.0
23-02-2022, 00:24:33,    212,    0.0,    3.3,   0.00,   0.00, 1020.1,   84.9, -999.0
23-02-2022, 00:24:43,    213,    0.0,    3.2,   0.00,   0.00, 1020.1,   84.8, -999.0
23-02-2022, 00:24:53,    213,    0.0,    3.3,   0.00,   0.00, 1020.1,   84.8, -999.0
23-02-2022, 00:25:03,    213,    0.0,    3.3,   0.00,   0.00, 1020.1,   84.7, -999.0
23-02-2022, 00:25:13,    213,    0.0,    3.2,   0.00,   0.00, 1020.1,   84.7, -999.0
23-02-2022, 00:25:23,    213,    0.0,    3.2,   0.00,   0.00, 1020.1,   84.7, -999.0
23-02-2022, 00:25:33,    212,    0.0,    3.2,   0.00,   0.00, 1020.1,   84.8, -999.0
23-02-2022, 00:25:42,    212,    0.0,    3.2,   0.00,   0.00, 1020.1,   84.8, -999.0
23-02-2022, 00:25:53,    213,    0.0,    3.2,   0.00,   0.00, 1020.1,   84.7, -999.0
23-02-2022, 00:26:03,    214,    0.4,    3.2,   0.00,   0.00, 1020.2,   84.9, -999.0
23-02-2022, 00:26:12,    213,    0.3,    3.4,   0.00,   0.00, 1020.2,   85.0, -999.0
23-02-2022, 00:26:22,    213,    0.0,    3.2,   0.00,   0.00, 1020.1,   84.9, -999.0
23-02-2022, 00:26:33,    212,    0.1,    3.3,   0.00,   0.00, 1020.1,   85.2, -999.0
23-02-2022, 00:26:42,    212,    0.0,    3.3,   0.00,   0.00, 1020.2,   85.1, -999.0
23-02-2022, 00:26:52,    214,    0.0,    3.2,   0.00,   0.00, 1020.1,   84.9, -999.0
23-02-2022, 00:27:02,    214,    0.1,    3.2,   0.00,   0.00, 1020.2,   85.1, -999.0
23-02-2022, 00:27:12,    214,    0.0,    3.3,   0.00,   0.00, 1020.1,   84.9, -999.0
23-02-2022, 00:27:22,    215,    0.0,    3.3,   0.00,   0.00, 1020.1,   84.9, -999.0
23-02-2022, 00:27:32,    214,    0.0,    3.2,   0.00,   0.00, 1020.1,   84.9, -999.0
23-02-2022, 00:27:42,    231,    1.6,    3.2,   0.00,   0.00, 1020.2,   85.3, -999.0
23-02-2022, 00:27:52,    234,    1.9,    3.4,   0.00,   0.00, 1020.3,   85.5, -999.0
23-02-2022, 00:28:02,    234,    1.0,    3.4,   0.00,   0.00, 1020.2,   85.3, -999.0
23-02-2022, 00:28:12,    233,    0.1,    3.3,   0.00,   0.00, 1020.1,   85.2, -999.0
23-02-2022, 00:28:22,    233,    0.0,    3.3,   0.00,   0.00, 1020.1,   85.0, -999.0
23-02-2022, 00:28:32,    233,    0.0,    3.3,   0.00,   0.00, 1020.1,   85.1, -999.0
23-02-2022, 00:28:42,    232,    0.5,    3.4,   0.00,   0.00, 1020.2,   85.4, -999.0
23-02-2022, 00:28:51,    232,    0.1,    3.3,   0.00,   0.00, 1020.1,   85.1, -999.0
23-02-2022, 00:29:02,    232,    0.1,    3.3,   0.00,   0.00, 1020.1,   85.3, -999.0
23-02-2022, 00:29:12,    232,    0.0,    3.3,   0.00,   0.00, 1020.0,   85.2, -999.0
23-02-2022, 00:29:21,    202,    0.2,    3.2,   0.00,   0.00, 1020.1,   85.4, -999.0
23-02-2022, 00:29:31,    202,    0.0,    3.3,   0.00,   0.00, 1020.0,   85.1, -999.0
23-02-2022, 00:29:42,    201,    0.0,    3.3,   0.00,   0.00, 1020.1,   85.3, -999.0
23-02-2022, 00:29:51,    202,    0.0,    3.3,   0.00,   0.00, 1020.1,   85.4, -999.0
23-02-2022, 00:30:01,    203,    0.0,    3.2,   0.00,   0.00, 1020.0,   85.3, -999.0
23-02-2022, 00:30:11,    203,    0.0,    3.2,   0.00,   0.00, 1020.0,   85.2, -999.0
23-02-2022, 00:30:21,    204,    0.0,    3.2,   0.00,   0.00, 1020.0,   85.1, -999.0
23-02-2022, 00:30:31,    205,    0.0,    3.3,   0.00,   0.00, 1020.1,   85.2, -999.0
23-02-2022, 00:30:41,    204,    0.0,    3.2,   0.00,   0.00, 1020.1,   85.1, -999.0
23-02-2022, 00:30:51,    204,    0.2,    3.3,   0.00,   0.00, 1020.1,   85.3, -999.0
23-02-2022, 00:31:01,    203,    0.0,    3.2,   0.00,   0.00, 1020.1,   85.3, -999.0
23-02-2022, 00:31:11,    205,    0.2,    3.2,   0.00,   0.00, 1020.1,   85.3, -999.0
23-02-2022, 00:31:21,    212,    1.1,    3.3,   0.00,   0.00, 1020.2,   85.6, -999.0
23-02-2022, 00:31:31,    212,    0.7,    3.3,   0.00,   0.00, 1020.1,   85.7, -999.0
23-02-2022, 00:31:41,    212,    0.0,    3.2,   0.00,   0.00, 1020.0,   85.4, -999.0
23-02-2022, 00:31:51,    210,    0.4,    3.3,   0.00,   0.00, 1020.1,   85.5, -999.0
23-02-2022, 00:32:00,    204,    0.7,    3.3,   0.00,   0.00, 1020.1,   85.8, -999.0
23-02-2022, 00:32:11,    206,    0.3,    3.3,   0.00,   0.00, 1020.1,   85.7, -999.0
23-02-2022, 00:32:21,    206,    0.0,    3.3,   0.00,   0.00, 1020.0,   85.4, -999.0
23-02-2022, 00:32:30,    206,    0.0,    3.2,   0.00,   0.00, 1020.0,   85.5, -999.0
23-02-2022, 00:32:40,    206,    0.0,    3.2,   0.00,   0.00, 1020.0,   85.4, -999.0
23-02-2022, 00:32:51,    265,    0.3,    3.2,   0.00,   0.00, 1020.1,   85.5, -999.0
23-02-2022, 00:33:00,    264,    0.0,    3.1,   0.00,   0.00, 1020.1,   85.5, -999.0
23-02-2022, 00:33:10,    212,    0.6,    3.2,   0.00,   0.00, 1020.1,   85.7, -999.0
23-02-2022, 00:33:21,    211,    0.6,    3.3,   0.00,   0.00, 1020.1,   85.7, -999.0
23-02-2022, 00:33:30,    219,    1.1,    3.2,   0.00,   0.00, 1020.2,   85.9, -999.0
23-02-2022, 00:33:40,    219,    0.4,    3.3,   0.00,   0.00, 1020.1,   85.9, -999.0
23-02-2022, 00:33:50,    219,    0.0,    3.2,   0.00,   0.00, 1020.0,   85.4, -999.0
23-02-2022, 00:34:00,    219,    0.0,    3.2,   0.00,   0.00, 1020.1,   85.6, -999.0
23-02-2022, 00:34:10,    218,    0.0,    3.2,   0.00,   0.00, 1020.0,   85.6, -999.0
23-02-2022, 00:34:20,    219,    0.2,    3.3,   0.00,   0.00, 1020.1,   85.8, -999.0
23-02-2022, 00:34:30,    219,    0.1,    3.2,   0.00,   0.00, 1020.1,   85.6, -999.0
23-02-2022, 00:34:40,    219,    0.0,    3.3,   0.00,   0.00, 1020.0,   85.6, -999.0
23-02-2022, 00:34:50,    219,    0.0,    3.2,   0.00,   0.00, 1020.0,   85.5, -999.0
23-02-2022, 00:35:00,    221,    1.2,    3.3,   0.00,   0.00, 1020.2,   85.9, -999.0
23-02-2022, 00:35:10,    222,    0.8,    3.2,   0.00,   0.00, 1020.1,   86.0, -999.0
23-02-2022, 00:35:20,    217,    2.5,    3.4,   0.00,   0.00, 1020.2,   86.1, -999.0
23-02-2022, 00:35:30,    232,    1.9,    3.3,   0.00,   0.00, 1020.2,   86.2, -999.0
23-02-2022, 00:35:40,    233,    0.2,    3.3,   0.00,   0.00, 1020.1,   86.0, -999.0
23-02-2022, 00:35:49,    232,    0.3,    3.3,   0.00,   0.00, 1020.1,   86.3, -999.0
23-02-2022, 00:35:59,    225,    1.2,    3.3,   0.00,   0.00, 1020.2,   86.2, -999.0
23-02-2022, 00:36:10,    224,    0.0,    3.2,   0.00,   0.00, 1020.0,   85.9, -999.0
23-02-2022, 00:36:19,    225,    0.0,    3.2,   0.00,   0.00, 1020.0,   85.9, -999.0
23-02-2022, 00:36:29,    225,    0.0,    3.3,   0.00,   0.00, 1020.0,   85.9, -999.0
23-02-2022, 00:36:39,    225,    0.0,    3.2,   0.00,   0.00, 1020.0,   85.9, -999.0
23-02-2022, 00:36:49,    225,    0.0,    3.2,   0.00,   0.00, 1020.0,   85.8, -999.0
23-02-2022, 00:36:59,    186,    0.5,    3.3,   0.00,   0.00, 1020.1,   86.0, -999.0
23-02-2022, 00:37:09,    205,    0.1,    3.3,   0.00,   0.00, 1020.0,   86.0, -999.0
23-02-2022, 00:37:19,    205,    0.0,    3.2,   0.00,   0.00, 1020.0,   85.9, -999.0
23-02-2022, 00:37:29,    204,    0.0,    3.2,   0.00,   0.00, 1020.0,   85.9, -999.0
23-02-2022, 00:37:39,    241,    0.6,    3.2,   0.00,   0.00, 1020.1,   86.0, -999.0
23-02-2022, 00:37:49,    188,    0.6,    3.3,   0.00,   0.00, 1020.1,   86.1, -999.0
23-02-2022, 00:37:59,    188,    0.1,    3.2,   0.00,   0.00, 1020.1,   86.0, -999.0
23-02-2022, 00:38:09,    205,    0.2,    3.3,   0.00,   0.00, 1020.1,   86.0, -999.0
23-02-2022, 00:38:19,    206,    0.0,    3.2,   0.00,   0.00, 1020.0,   86.0, -999.0
23-02-2022, 00:38:29,    228,    0.3,    3.2,   0.00,   0.00, 1020.1,   86.0, -999.0
23-02-2022, 00:38:39,    228,    0.1,    3.3,   0.00,   0.00, 1020.1,   86.0, -999.0
23-02-2022, 00:38:49,    228,    0.5,    3.3,   0.00,   0.00, 1020.2,   86.3, -999.0
23-02-2022, 00:38:58,    228,    0.0,    3.2,   0.00,   0.00, 1020.0,   85.9, -999.0
23-02-2022, 00:39:08,    227,    0.0,    3.2,   0.00,   0.00, 1020.0,   86.0, -999.0
23-02-2022, 00:39:19,    227,    0.1,    3.2,   0.00,   0.00, 1020.1,   86.0, -999.0
23-02-2022, 00:39:28,    227,    0.0,    3.3,   0.00,   0.00, 1020.0,   86.1, -999.0
23-02-2022, 00:39:38,    227,    0.0,    3.2,   0.00,   0.00, 1020.0,   86.0, -999.0
23-02-2022, 00:39:49,    227,    0.0,    3.2,   0.00,   0.00, 1020.0,   86.0, -999.0
23-02-2022, 00:39:58,    226,    0.0,    3.2,   0.00,   0.00, 1020.0,   86.1, -999.0
23-02-2022, 00:40:08,    226,    0.0,    3.2,   0.00,   0.00, 1020.0,   85.9, -999.0
23-02-2022, 00:40:18,    225,    0.0,    3.2,   0.00,   0.00, 1020.0,   85.9, -999.0
23-02-2022, 00:40:28,    242,    0.5,    3.2,   0.00,   0.00, 1020.1,   86.2, -999.0
23-02-2022, 00:40:38,    239,    0.8,    3.3,   0.00,   0.00, 1020.1,   86.3, -999.0
23-02-2022, 00:40:48,    237,    0.4,    3.3,   0.00,   0.00, 1020.1,   86.2, -999.0
23-02-2022, 00:40:58,    239,    1.3,    3.2,   0.00,   0.00, 1020.1,   86.4, -999.0
23-02-2022, 00:41:08,    239,    1.2,    3.3,   0.00,   0.00, 1020.2,   86.3, -999.0
23-02-2022, 00:41:18,    240,    1.0,    3.3,   0.00,   0.00, 1020.1,   86.3, -999.0
23-02-2022, 00:41:28,    240,    0.1,    3.2,   0.00,   0.00, 1020.1,   86.2, -999.0
23-02-2022, 00:41:38,    239,    0.1,    3.2,   0.00,   0.00, 1020.0,   86.2, -999.0
23-02-2022, 00:41:48,    239,    0.0,    3.2,   0.00,   0.00, 1020.0,   86.0, -999.0
23-02-2022, 00:41:58,    223,    0.0,    3.2,   0.00,   0.00, 1020.0,   86.2, -999.0
23-02-2022, 00:42:07,    223,    0.0,    3.2,   0.00,   0.00, 1020.0,   86.1, -999.0
23-02-2022, 00:42:18,    223,    0.0,    3.1,   0.00,   0.00, 1020.0,   86.1, -999.0
23-02-2022, 00:42:28,    223,    0.0,    3.1,   0.00,   0.00, 1020.0,   86.1, -999.0
23-02-2022, 00:42:37,    223,    0.0,    3.1,   0.00,   0.00, 1020.0,   86.1, -999.0
23-02-2022, 00:42:47,    224,    0.0,    3.1,   0.00,   0.00, 1019.9,   86.0, -999.0
23-02-2022, 00:42:58,    218,    0.4,    3.2,   0.00,   0.00, 1020.0,   86.2, -999.0
23-02-2022, 00:43:07,    217,    0.5,    3.2,   0.00,   0.00, 1020.1,   86.2, -999.0
23-02-2022, 00:43:17,    217,    0.3,    3.2,   0.00,   0.00, 1020.1,   86.4, -999.0
23-02-2022, 00:43:27,    217,    0.2,    3.2,   0.00,   0.00, 1020.1,   86.4, -999.0
23-02-2022, 00:43:37,    217,    0.0,    3.2,   0.00,   0.00, 1020.0,   86.3, -999.0
23-02-2022, 00:43:47,    217,    0.0,    3.1,   0.00,   0.00, 1020.0,   86.4, -999.0
23-02-2022, 00:43:57,    217,    0.0,    3.2,   0.00,   0.00, 1020.0,   86.4, -999.0
23-02-2022, 00:44:07,    217,    0.0,    3.1,   0.00,   0.00, 1019.9,   86.3, -999.0
23-02-2022, 00:44:17,    217,    0.0,    3.1,   0.00,   0.00, 1020.0,   86.2, -999.0
23-02-2022, 00:44:27,    217,    0.0,    3.1,   0.00,   0.00, 1020.0,   86.3, -999.0
23-02-2022, 00:44:37,    226,    0.2,    3.1,   0.00,   0.00, 1020.0,   86.3, -999.0
23-02-2022, 00:44:47,    227,    1.8,    3.3,   0.00,   0.00, 1020.1,   86.6, -999.0
23-02-2022, 00:44:57,    229,    1.2,    3.2,   0.00,   0.00, 1020.1,   86.7, -999.0
23-02-2022, 00:45:07,    230,    0.7,    3.3,   0.00,   0.00, 1020.1,   86.6, -999.0
23-02-2022, 00:45:16,    229,    0.0,    3.2,   0.00,   0.00, 1020.0,   86.4, -999.0
23-02-2022, 00:45:27,    229,    0.1,    3.2,   0.00,   0.00, 1020.0,   86.4, -999.0
23-02-2022, 00:45:37,    232,    0.0,    3.2,   0.00,   0.00, 1020.0,   86.3, -999.0
23-02-2022, 00:45:46,    232,    0.3,    3.2,   0.00,   0.00, 1020.1,   86.7, -999.0
23-02-2022, 00:45:57,    231,    0.0,    3.1,   0.00,   0.00, 1020.0,   86.4, -999.0
23-02-2022, 00:46:07,    232,    1.4,    3.2,   0.00,   0.00, 1020.1,   86.7, -999.0
23-02-2022, 00:46:16,    232,    0.8,    3.2,   0.00,   0.00, 1020.1,   86.8, -999.0
23-02-2022, 00:46:26,    232,    0.0,    3.1,   0.00,   0.00, 1020.0,   86.5, -999.0
23-02-2022, 00:46:36,    232,    0.0,    3.2,   0.00,   0.00, 1020.0,   86.5, -999.0